Date String (YYYY-MM-DD hh:mm:ss) UTC,Instrument flags,Ambient pressure (hPa),Sample flow (lpm),Bypass flow (lpm),Sample temperature (°C),Ambient temperature (°C),ASC tube jacket temperature (°C),LED temperature (°C),Box temperature (°C),Sample RH (%),Span deviation,Mass concentration (μg/m³),Mass concentration (μg/m³),Mass concentration (μg/m³)
DateTimeUTC,F1_M11,P_M11,Q1_M11,Q2_M11,T1_M11,T2_M11,T3_M11,T4_M11,T5_M11,U1_M11,ZSPAN_M11,X0_M11,X2_M11,X1_M11
2022-10-17 12:00:00,,0833.3,4.99,0.00,24.5,22.8,00.0,33.4,26.2,14.0,0000.0,0008.30,0005.20,0004.86
2022-10-17 12:01:00,,0833.4,5.00,0.00,24.5,22.8,00.0,33.4,26.2,13.9,0000.0,0008.20,0005.18,0004.86
2022-10-17 12:02:00,,0833.4,5.00,0.00,24.4,22.8,00.0,33.4,26.2,14.0,0000.0,0008.21,0005.16,0004.85
2022-10-17 12:03:00,,0833.4,5.00,0.00,24.4,22.8,00.0,33.4,26.2,14.0,0000.0,0008.59,0005.14,0004.85
2022-10-17 12:04:00,,0833.4,4.99,0.00,24.4,22.8,00.0,33.4,26.3,14.0,0000.0,0008.74,0005.14,0004.85
2022-10-17 12:05:00,,0833.4,5.01,0.00,24.4,22.8,00.0,33.4,26.2,14.0,0000.0,0009.27,0005.15,0004.83
2022-10-17 12:06:00,,0833.4,4.99,0.00,24.4,22.8,00.0,33.4,26.2,14.1,0000.0,0009.21,0005.15,0004.83
2022-10-17 12:07:00,,0833.3,5.00,0.00,24.4,22.8,00.0,33.3,26.1,14.1,0000.0,0009.16,0005.19,0004.84
2022-10-17 12:08:00,,0833.3,5.01,0.00,24.4,22.7,00.0,33.3,26.1,14.2,0000.0,0009.26,0005.20,0004.85
2022-10-17 12:09:00,,0833.3,4.98,0.00,24.4,22.7,00.0,33.3,26.1,14.2,0000.0,0009.41,0005.19,0004.84
2022-10-17 12:10:00,,0833.4,5.01,0.00,24.4,22.7,00.0,33.3,26.1,14.2,0000.0,0009.70,0005.23,0004.84
2022-10-17 12:11:00,,0833.4,4.98,0.00,24.4,22.7,00.0,33.3,26.1,14.2,0000.0,0010.04,0005.29,0004.86
2022-10-17 12:12:00,,0833.4,5.01,0.00,24.4,22.7,00.0,33.3,26.1,14.2,0000.0,0010.02,0005.29,0004.87
2022-10-17 12:13:00,,0833.4,5.00,0.00,24.3,22.7,00.0,33.3,26.1,14.3,0000.0,0010.03,0005.30,0004.88
2022-10-17 12:14:00,,0833.4,5.00,0.00,24.3,22.7,00.0,33.3,26.0,14.3,0000.0,0009.78,0005.34,0004.89
2022-10-17 12:15:00,,0833.3,5.00,0.00,24.3,22.7,00.0,33.3,26.1,14.4,0000.0,0009.55,0005.33,0004.89
2022-10-17 12:16:00,,0833.3,5.00,0.00,24.3,22.7,00.0,33.3,26.1,14.5,0000.0,0009.08,0005.35,0004.92
2022-10-17 12:17:00,,0833.3,5.00,0.00,24.3,22.7,00.0,33.3,26.1,14.6,0000.0,0009.03,0005.37,0004.95
2022-10-17 12:18:00,,0833.3,4.99,0.00,24.3,22.7,00.0,33.3,26.1,14.7,0000.0,0008.99,0005.40,0004.97
2022-10-17 12:19:00,,0833.3,5.01,0.00,24.3,22.6,00.0,33.3,26.0,14.7,0000.0,0008.84,0005.42,0005.01
2022-10-17 12:20:00,,0833.3,4.98,0.00,24.3,22.6,00.0,33.2,26.0,14.8,0000.0,0009.23,0005.45,0005.04
2022-10-17 12:21:00,,0833.3,5.01,0.00,24.3,22.6,00.0,33.2,26.1,14.7,0000.0,0009.16,0005.45,0005.06
2022-10-17 12:22:00,,0833.2,5.01,0.00,24.3,22.6,00.0,33.2,26.0,14.8,0000.0,0008.81,0005.43,0005.06
2022-10-17 12:23:00,,0833.2,4.99,0.00,24.2,22.6,00.0,33.2,26.0,14.8,0000.0,0008.89,0005.49,0005.08
2022-10-17 12:24:00,,0833.2,5.00,0.00,24.2,22.6,00.0,33.2,26.0,14.8,0000.0,0008.90,0005.53,0005.11
2022-10-17 12:25:00,,0833.2,5.00,0.00,24.2,22.6,00.0,33.2,26.0,14.8,0000.0,0008.83,0005.54,0005.14
2022-10-17 12:26:00,,0833.2,5.01,0.00,24.2,22.6,00.0,33.2,26.0,14.8,0000.0,0008.79,0005.55,0005.17
2022-10-17 12:27:00,,0833.2,4.98,0.00,24.2,22.5,00.0,33.2,25.9,14.8,0000.0,0008.82,0005.57,0005.18
2022-10-17 12:28:00,,0833.2,5.01,0.00,24.2,22.5,00.0,33.2,25.9,14.8,0000.0,0008.86,0005.58,0005.19
2022-10-17 12:29:00,,0833.2,4.99,0.00,24.2,22.5,00.0,33.1,26.0,14.8,0000.0,0008.83,0005.57,0005.18
2022-10-17 12:30:00,,0833.2,5.00,0.00,24.2,22.5,00.0,33.1,25.9,14.8,0000.0,0009.38,0005.58,0005.17
2022-10-17 12:31:00,,0833.2,5.00,0.00,24.2,22.5,00.0,33.1,25.9,14.9,0000.0,0008.89,0005.56,0005.15
2022-10-17 12:32:00,,0833.2,5.01,0.00,24.1,22.5,00.0,33.1,25.9,14.9,0000.0,0008.75,0005.55,0005.15
2022-10-17 12:33:00,,0833.2,4.98,0.00,24.1,22.5,00.0,33.1,25.8,15.0,0000.0,0008.73,0005.54,0005.15
2022-10-17 12:34:00,,0833.2,5.02,0.00,24.1,22.5,00.0,33.1,25.9,15.0,0000.0,0008.75,0005.53,0005.16
2022-10-17 12:35:00,,0833.2,4.98,0.00,24.1,22.5,00.0,33.1,25.8,15.0,0000.0,0008.79,0005.52,0005.16
2022-10-17 12:36:00,,0833.2,5.01,0.00,24.1,22.5,00.0,33.1,25.9,15.0,0000.0,0008.70,0005.50,0005.16
2022-10-17 12:37:00,,0833.2,4.99,0.00,24.1,22.5,00.0,33.1,25.9,15.0,0000.0,0008.68,0005.50,0005.16
2022-10-17 12:38:00,,0833.2,4.99,0.00,24.1,22.5,00.0,33.1,25.9,15.0,0000.0,0008.67,0005.50,0005.17
2022-10-17 12:39:00,,0833.3,5.01,0.00,24.1,22.5,00.0,33.0,25.8,15.0,0000.0,0008.61,0005.49,0005.17
2022-10-17 12:40:00,,0833.3,5.00,0.00,24.1,22.4,00.0,33.0,25.8,15.0,0000.0,0008.67,0005.51,0005.18
2022-10-17 12:41:00,,0833.2,5.00,0.00,24.1,22.4,00.0,33.0,25.9,15.0,0000.0,0008.26,0005.48,0005.18
2022-10-17 12:42:00,,0833.3,4.99,0.00,24.1,22.4,00.0,33.0,25.9,14.9,0000.0,0008.02,0005.47,0005.19
2022-10-17 12:43:00,,0833.2,4.99,0.00,24.0,22.4,00.0,33.0,25.7,14.9,0000.0,0007.99,0005.46,0005.18
2022-10-17 12:44:00,,0833.2,5.00,0.00,24.0,22.4,00.0,33.0,25.8,14.9,0000.0,0008.03,0005.47,0005.18
2022-10-17 12:45:00,,0833.3,5.02,0.00,24.0,22.4,00.0,33.0,25.8,14.9,0000.0,0008.13,0005.45,0005.16
2022-10-17 12:46:00,,0833.3,4.98,0.00,24.0,22.4,00.0,33.0,25.7,15.0,0000.0,0008.82,0005.43,0005.14
2022-10-17 12:47:00,,0833.3,5.01,0.00,24.0,22.4,00.0,33.0,25.7,15.0,0000.0,0009.18,0005.43,0005.12
2022-10-17 12:48:00,,0833.3,4.99,0.00,24.0,22.4,00.0,33.0,25.7,15.0,0000.0,0009.48,0005.44,0005.11
2022-10-17 12:49:00,,0833.3,5.00,0.00,24.0,22.4,00.0,33.0,25.7,15.0,0000.0,0010.19,0005.43,0005.10
2022-10-17 12:50:00,,0833.3,5.01,0.00,24.0,22.4,00.0,32.9,25.7,15.0,0000.0,0011.10,0005.43,0005.08
2022-10-17 12:51:00,,0833.3,4.99,0.00,24.0,22.4,00.0,32.9,25.7,15.0,0000.0,0011.04,0005.39,0005.07
2022-10-17 12:52:00,,0833.3,5.00,0.00,24.0,22.4,00.0,32.9,25.7,15.0,0000.0,0011.01,0005.38,0005.07
2022-10-17 12:53:00,,0833.4,5.00,0.00,24.0,22.3,00.0,32.9,25.7,15.0,0000.0,0011.11,0005.40,0005.07
2022-10-17 12:54:00,,0833.3,5.01,0.00,24.0,22.4,00.0,32.9,25.7,15.0,0000.0,0011.20,0005.43,0005.09
2022-10-17 12:55:00,,0833.3,5.01,0.00,24.0,22.4,00.0,32.9,25.7,15.0,0000.0,0011.82,0005.44,0005.09
2022-10-17 12:56:00,,0833.4,4.99,0.00,23.9,22.4,00.0,32.9,25.6,15.1,0000.0,0011.96,0005.46,0005.08
2022-10-17 12:57:00,,0833.4,5.01,0.00,23.9,22.3,00.0,32.9,25.7,15.1,0000.0,0011.23,0005.46,0005.08
2022-10-17 12:58:00,,0833.4,4.99,0.00,23.9,22.3,00.0,32.9,25.7,15.1,0000.0,0010.80,0005.45,0005.08
2022-10-17 12:59:00,,0833.4,5.00,0.00,23.9,22.3,00.0,32.9,25.7,15.1,0000.0,0010.41,0005.41,0005.08
